Preview of NWS' New Version of Forecast
This preview is not operational and should not be used for support decisions.
Latest weather observations around

Albany, Southwest Georgia Regional Airport (KABY)

Using English Units (Switch to International System of Units)
Date/ Time (EDT) Wind (mph) Vis. (mi) Weather Sky Cond. Temp (°F) Rel. Humidity Wind Chill (°F) Heat Index (°F) Pressure Precip. (in)
Air Dwpt 6 hour Altimeter (inHg) Sea level (inHg) 1 hr 3 hr 6 hr
Max Min
Sep 16 21:53 Calm 10 Clear CLR 78 67     69%   79   29.97      
Sep 16 20:53 Calm 10 Clear CLR 81 67     62%   83 29.98 29.97      
Sep 16 19:53 Calm 10 Clear CLR 86 67     53%   89 29.98 29.97      
Sep 16 18:53 NNE 3 10 Clear CLR 93 65     40%   95 29.97 29.96      
Sep 16 17:53 E 8 10 Clear CLR 95 64     36%   97 29.98 29.97      
Sep 16 16:53 ENE 9 10 Clear CLR 96 65     36%   99 29.98 29.97      
Sep 16 15:53 NNE 8 10 Clear CLR 95 64     36%   97 30 29.99      
Sep 16 14:53 E 10 10 Clear CLR 95 65     37%   98   30.01      
Sep 16 13:53 ENE 10 10 Mostly Clear FEW055 94 67     41%   98   30.03      
Sep 16 12:53 E 8 10 Mostly Clear FEW047 92 66     43%   95   30.06      
Sep 16 11:53 ENE 11 10 Mostly Clear FEW039 91 70     50%   97   30.07      
Sep 16 10:53 NNE 8 10 Clear CLR 88 71     57%   94 30.09 30.08      
Sep 16 09:53 NNE 5 10 Clear CLR 85 72     65%   91 30.09 30.08      
Sep 16 08:53 Calm 10 Clear CLR 79 70     74%   82 30.09 30.08      
Sep 16 07:53 NW 3 10 Clear CLR 73 69     87%   74 30.07 30.06      
Sep 16 06:53 Calm 10 Clear CLR 73 68     84%   74 30.06 30.05      
Sep 16 05:53 NNW 3 10 Clear CLR 73 68     84%   74 30.04 30.03      
Sep 16 04:53 Calm 10 Clear CLR 73 68     84%   74 30.04 30.03      
Sep 16 03:53 Calm 10 Clear CLR 76 68     76%   77 30.03 30.02      
Sep 16 02:53 Calm 10 Clear CLR 76 69     79%   77 30.04 30.03      
Sep 16 01:53 ESE 5 10 Clear CLR 76 70     82%   77   30.03      
Sep 16 00:53 NNE 3 10 Clear CLR 78 69     74%   79   30.02      
Sep 15 23:53 Calm 10 Clear CLR 78 71     79%   79   30.02      
Sep 15 22:53 Calm 10 Clear CLR 79 71     77%   82   30.03      
Sep 15 21:53 Calm 10 Clear CLR 81 70     69%   84   30.02      
Sep 15 20:53 Calm 10 Clear CLR 83 69     63%   87 30.01 30.01      
Sep 15 19:53 Calm 10 Mostly Cloudy BKN065 87 68     53%   91 30.01 30      
Sep 15 18:53 ENE 6 10 Mostly Clear FEW060 90 67     47%   93 30.01 30      
Sep 15 17:53 E 10 10 Clear CLR 93 67     43%   97 30.01 30      
Sep 15 16:53 E 11 10 Clear CLR 93 68     44%   97 30 29.99      
Sep 15 15:53 NE 10 10 Clear CLR 92 67     44%   95 30.01 30      
Sep 15 14:53 NE 9 10 Clear CLR 93 68     44%   97 30.03 30.02      
Sep 15 13:53 NNE 13 10 Clear CLR 91 68     47%   95 30.06 30.05      
Sep 15 12:53 ENE 13 10 Clear CLR 90 68     49%   94 30.09 30.08      
Sep 15 11:53 NE 10 10 Clear CLR 88 69     54%   92 30.1 30.09      
Sep 15 10:53 NE 11 10 Clear CLR 84 70     63%   88 30.11 30.1      
Sep 15 09:53 NE 14 10 Clear CLR 82 71     69%   86   30.11      
Sep 15 08:53 NE 11 10 Clear CLR 78 70     76%   79   30.11      
Sep 15 07:53 NE 7 10 Clear CLR 75 70     84%   76   30.09      
Sep 15 06:53 NE 7 10 Clear CLR 74 70     87%   75   30.09      
Sep 15 05:53 NNE 6 10 Clear CLR 75 70     84%   76   30.08      
Sep 15 04:53 NNE 5 10 Clear CLR 76 70     82%   77   30.08      
Sep 15 03:53 ENE 7 10 Clear CLR 76 70     82%   77   30.07      
Sep 15 02:53 NNE 6 10 Clear CLR 77 70     79%   78   30.09      
Sep 15 01:53 NE 7 10 Clear CLR 77 70     79%   78   30.09      
Sep 15 00:53 ENE 3 10 Clear CLR 77 70     79%   78   30.1      
Sep 14 23:53 ENE 5 10 Clear CLR 79 70     74%   82   30.11      
Sep 14 22:53 E 6 10 Clear CLR 80 70     71%   83   30.12      
Sep 14 21:53 E 5 10 Mostly Clear FEW055 81 70     69%   84   30.11      
Sep 14 20:53 ESE 9 10 Mostly Clear FEW065 82 70     67%   86 30.1 30.09      
Sep 14 19:53 NE 5 10 Clear CLR 86 69     57%   90 30.08 30.08      
Sep 14 18:53 ENE 10 10 Clear CLR 89 69     52%   94 30.09 30.08      
Sep 14 17:53 ENE 14 10 Clear CLR 90 68     49%   94 30.09 30.08      
Sep 14 16:53 ENE 16 10 Clear CLR 91 68     47%   95 30.1 30.09      
Sep 14 15:53 ENE 14 10 Clear CLR 91 69     49%   96 30.11 30.1      
Sep 14 14:53 ENE 16 10 Mostly Clear FEW040 89 69     52%   94 30.14 30.13      
Sep 14 13:53 ENE 15 10 Mostly Cloudy BKN040 89 70     53%   94 30.15 30.14      
Sep 14 12:53 ENE 14 10 Mostly Cloudy BKN034 88 71     57%   94 30.18 30.17      
Sep 14 11:53 ENE 13 10 Mostly Cloudy BKN024 BKN032 86 72     63%   92 30.19 30.18      
Sep 14 10:53 ENE 13 10 Mostly Cloudy BKN020 83 72     70%   88 30.19 30.19      
Sep 14 09:53 ENE 10 10 Mostly Clear FEW027 81 71     72%   85 30.19 30.18      
Sep 14 08:53 NE 9 10 Mostly Clear FEW024 77 69     77%   78 30.19 30.18      
Sep 14 07:53 NNE 8 10 Clear CLR 74 69     85%   75 30.17 30.16      
Sep 14 06:53 NNE 8 10 Clear CLR 73 69     87%   74 30.15 30.14      
Sep 14 05:53 NNE 5 10 Clear CLR 73 69     87%   74 30.15 30.14      
Sep 14 04:53 NE 3 10 Clear CLR 73 69     87%   74 30.14 30.13      
Sep 14 03:53 NNE 5 10 Clear CLR 74 68     82%   75 30.14 30.14      
Sep 14 02:53 NNE 5 10 Clear CLR 75 68     79%   76 30.15 30.14      
Sep 14 01:53 Calm 10 Clear CLR 74 68     82%   75 30.15 30.14      
Sep 14 00:53 E 6 10 Clear CLR 75 67     76%   76 30.16 30.15      
Sep 13 23:53 E 3 10 Clear CLR 76 67     74%   77 30.17 30.16      
Sep 13 22:53 E 7 10 Clear CLR 78 68     71%   79 30.16 30.15      
Sep 13 21:53 Calm 10 Clear   81 67     62%   83 30.14 30.13      
May 15 11:53 E 8 10 Cloudy SCT021 BKN029 OVC040 78 68     71%   79   29.98      
May 15 11:41 ESE 8 10 Cloudy FEW021 BKN029 OVC041 80 68     67%   83          
May 13 09:53 6 10 Clear CLR 81 66     61%   83   30.12      
May 12 19:53 NNW 6 10 Partly Cloudy SCT085 SCT100 91 62     38%   92   30.03      
May 12 01:53 Calm 10 Partly Cloudy SCT110 75 66     74%   76   30.09     0
May 12 00:53 Calm 10 Cloudy OVC085 79 65     62%   80   30.11      
Notice The following observation data may not be complete
May 11 21:53 Calm 10 Light Rain OVC080   62      %     30.08 30.07 0    
May 11 16:53     Mostly Cloudy BKN075 93 57     30%   92          
May 11 14:20   10 Mostly Cloudy BKN060 93 61     34%   93 30.1        
May 11 09:53 WNW 6 10 Clear CLR 81 61     51%   81 30.15        
Jun 11 17:53 S 6 10 Clear CLR 83 74     74%   89 30.14 30.13      
Jun 11 13:53 SSE 9 10 Cloudy BKN028 BKN041 OVC070 84 74     72%   91 30.19 30.18      
Jun 11 12:53 SSE 8 10 Cloudy BKN028 BKN041 OVC070 86 74     67%   94 30.19 30.18      
Jun 09 05:53 Calm 10 Clear CLR 63 61     93%     29.92 29.92      
Jun 09 01:53 Calm 10 Clear CLR 66 63     90%     29.92 29.91      
Jun 08 19:53 N 5 10 Clear   81 59     47%   81 29.86 29.85      
Jun 08 10:56 E 10 10 Mostly Cloudy BKN027 75 62     64%   75 29.9        
Jun 08 10:53 ENE 9 10 Mostly Cloudy BKN020 75 62     64%   75 29.9 29.9      
Jun 08 07:23 NNE 10 10 Mostly Cloudy SCT015 BKN100 66 62     87%     29.86        
Jun 08 05:53 NNE 6 10 Mostly Cloudy BKN020 BKN100 65 62     90%     29.82 29.82      
Jun 08 01:53 N 5 10 Mostly Cloudy BKN020 BKN100 69 66     90%     29.82 29.82      
Jun 07 12:53 NE 15 6 Clear   73 71     94%   74 29.77 29.76 0    
Jun 06 03:53 S 3 10 Cloudy OVC060 74 73     97%   76 29.81 29.8